Location: The Saddle
(36.8333°N, 80.3417°W)
Time: 07:53:46
(UTC-05:00)

Vanguard 2 Rocket - Pass Details

Date: 12 December 2023
Orbit: 555 x 3309 km, 32.9° (Epoch: 02 March)

Event Time Altitude Azimuth Distance (km) Brightness Sun altitude
Rises 20:47:21 0° 280° (W) 7,293 12.3 -43.5°
Reaches altitude 10° 20:54:46 10° 265° (W) 6,207 11.7 -45.0°
Maximum altitude 21:05:43 18° 230° (SW) 5,101 10.9 -47.2°
Drops below altitude 10° 21:15:03 10° 194° (SSW) 5,134 10.7 -49.1°
Sets 21:20:22 0° 176° (S) 5,652 10.9 -50.1°
